Location: Woodhurst
(52.3667°N, 0.0667°W)
Time: 15:34:04
(UTC+00:00)

Cosmos 2082 Rocket - Pass Details

Date: 19 May 2025
Orbit: 832 x 853 km, 71.0° (Epoch: 12 June)

Event Time Altitude Azimuth Distance (km) Brightness Sun altitude
Exits shadow 23:23:50 - 229° (SW) 2,570 4.4 -17.3°
Reaches altitude 10° 23:24:12 10° 229° (SW) 2,439 4.3 -17.3°
Maximum altitude 23:29:41 55° 307° (NW) 1,000 2.8 -17.4°
Drops below altitude 10° 23:35:13 10° 26° (NNE) 2,462 5.5 -17.5°
Sets 23:37:44 0° 31° (NNE) 3,403 6.3 -17.5°
